map of MQY home
MQY - Airport
Location
City:  Smyrna, Tennessee, United States
ICAO:KMQY
IATA:MQY
FAA LID:MQY

Details
Type:Airport (Part 139 Class IV)
Use:Public/Civil
Latitude:3600'32"N (36.008972)
Longitude:8631'12"W (-86.520082)
Datum:WGS 1984
Elevation:543 ft (166 m)
Variation:3.97W (WMM2015v2 magnetic declination)
-0.06 annual change
Runways:2
Longest:8048 × 150 ft (2453 × 45.5 m), paved

Time
Time Zone:UTC-6 (DST-5)
Local Time:

Weather
METAR:KMQY 041409Z 16008KT 10SM BKN016 OVC080 13/11 A3001 RMK AO2
TAF:KMQY 041121Z 0412/0512 18012KT P6SM SCT030 BKN100
FM041500 19013KT 4SM -SHRA OVC030
FM042000 19012KT P6SM VCSH OVC025
FM050400 19006KT P6SM OVC020
TEMPO 0508/0512 4SM BR

Related Locations
Nearby:
Farthest:YAUG: 11214 mi / 18047 km
Augusta [Augusta Airport], WA, AU

Find:

   beyond  
but within

Other Information
Maps:
NOTAMs:
Links:
Sources:

  
  • flag of United States
  • flag of Tennessee
  

Airport Diagram

Airport diagram for MQY

Airport diagram PDF from FAA

Sectional Chart

Flight Planning
at skyvector.com

Satellite Image

Google Maps Satellite view

 

Copyright © 2004-2019 Karl L. Swartz. All rights reserved.
The Great Circle Mapper name and logo are trademarks of the Great Circle Mapper.
All other trademarks mentioned herein belong to their respective owners.
Please see credits for attibutions and further copyright information.

  Follow gcmap on Facebook Follow gcmap on Twitter GCmap on LinkedIn

hCard Microformat

Geo Microformat